PBO Station Position Time Series. Reference Frame : NAM14
Format Version,1.1.0
4-character ID,RDMS
Station name,RDMSMicheDOM2018
Begin Date, 2018-07-05
End Date, 2019-10-07
Release Date, 2019-10-08
Reference position, 18.9796069570 North Latitude, -69.0408156398 East Longitude, -16.84934 meters elevation,
Date, North (mm), East (mm), Vertical (mm), North Std. Deviation (mm), East Std. Deviation (mm),              Vertical Std. Deviation (mm), Quality,
2018-07-05,0.51, -0.12, 3.36, 185.79, 293.50, 586.05, repro,
2018-07-06,1.37, -1.75, -9.35, 113.71, 160.79, 278.32, repro,
2018-07-07,2.49, 0.35, -1.82, 187.87, 293.29, 595.12, repro,
2018-07-08,0.00, 0.00, 0.00, 1.64, 1.85, 7.69, repro,
2018-07-09,1.79, 0.80, 2.40, 1.74, 1.96, 8.35, repro,
2018-07-10,-0.25, -1.47, -12.28, 1.61, 1.77, 7.48, repro,
2018-07-11,0.64, -1.42, -5.20, 1.61, 1.78, 7.49, repro,
2018-07-12,-0.05, -0.87, -4.38, 1.63, 1.78, 7.53, repro,
2018-07-13,1.72, -2.92, 2.80, 1.63, 1.79, 7.62, repro,
2018-07-14,0.65, -1.22, 2.70, 1.61, 1.77, 7.50, repro,
2018-07-15,-0.12, 0.03, 3.03, 1.59, 1.75, 7.35, repro,
2018-07-16,0.60, -0.01, -6.07, 1.72, 1.94, 8.01, repro,
2018-07-17,0.22, 1.06, -3.91, 1.68, 1.80, 7.68, repro,
2018-07-18,0.50, -3.27, 10.80, 1.63, 1.78, 7.58, repro,
2018-07-19,4.20, 1.59, 9.50, 1.67, 1.86, 7.95, repro,
2018-07-20,-1.20, -1.78, -7.86, 1.71, 1.90, 8.30, repro,
2018-07-21,0.21, -2.45, -1.18, 1.61, 1.77, 7.47, repro,
2018-07-22,1.72, -1.36, 4.30, 1.64, 1.78, 7.59, repro,
2018-07-23,-0.25, -2.30, 1.64, 1.62, 1.80, 7.58, repro,
2018-07-24,1.13, -1.67, 2.43, 1.65, 1.82, 7.63, repro,
2018-07-25,1.20, -1.58, 14.69, 1.71, 1.97, 8.29, repro,
2018-07-26,-1.03, -2.90, -4.02, 1.64, 1.88, 7.82, repro,
2018-07-27,1.86, 1.04, 0.55, 1.62, 1.78, 7.53, repro,
2018-07-28,0.13, -0.38, -1.96, 1.62, 1.76, 7.52, repro,
2018-07-29,2.80, -2.58, 24.89, 1.75, 1.92, 8.25, repro,
2018-07-30,-1.15, -0.90, 21.94, 1.75, 1.98, 8.31, repro,
2018-07-31,-0.13, -0.98, 1.90, 1.72, 1.88, 8.00, repro,
2018-08-01,2.19, -0.70, -2.49, 1.67, 1.86, 7.80, repro,
2018-08-02,1.19, -1.81, -2.24, 1.71, 1.90, 8.01, repro,
2018-08-03,-0.17, -2.29, -6.78, 1.63, 1.78, 7.56, repro,
2018-08-04,-0.49, -1.70, 0.83, 1.66, 1.81, 7.70, repro,
2018-08-05,0.20, -0.61, -9.45, 1.64, 1.81, 7.69, repro,
2018-08-06,0.08, -2.93, -5.86, 1.70, 1.88, 8.25, repro,
2018-08-07,-2.35, -1.12, -0.73, 1.61, 1.79, 7.54, repro,
2018-08-08,2.60, -2.54, 0.04, 1.61, 1.75, 7.44, repro,
2018-08-09,0.06, -1.84, 2.09, 1.62, 1.76, 7.50, repro,
2018-08-10,-2.03, -2.98, 11.60, 1.73, 1.89, 7.99, repro,
2018-08-11,1.94, -4.10, 0.35, 1.63, 1.84, 7.73, repro,
2018-08-12,0.14, 0.93, 2.86, 1.71, 1.97, 8.13, repro,
2018-08-13,2.38, -4.61, -4.82, 1.75, 1.94, 8.20, repro,
2018-08-14,-0.21, -5.28, 17.72, 1.82, 1.99, 8.41, repro,
2018-08-15,1.14, -2.43, 3.11, 1.66, 1.80, 7.72, repro,
2018-08-16,0.73, -2.09, -15.55, 1.69, 1.92, 8.00, repro,
2018-08-17,0.54, -0.49, 12.98, 1.70, 1.95, 8.07, repro,
2018-08-18,2.08, -2.81, 3.99, 1.72, 1.90, 7.93, repro,
2018-08-19,2.76, -0.80, -4.91, 1.63, 1.79, 7.69, repro,
2018-08-20,-1.63, -2.09, -1.18, 1.73, 1.90, 8.05, repro,
2018-08-21,-0.47, -0.43, -8.26, 1.61, 1.75, 7.50, repro,
2018-08-22,-0.76, -1.88, -8.06, 1.66, 1.82, 7.82, repro,
2018-08-23,3.12, -2.19, -1.29, 1.72, 1.93, 8.16, repro,
2018-08-24,2.05, -0.68, 1.13, 1.66, 1.77, 7.72, repro,
2018-08-25,2.85, -0.91, -2.85, 1.80, 1.94, 8.44, repro,
2018-08-26,-0.38, 1.39, -12.82, 1.73, 1.87, 8.21, repro,
2018-08-27,1.99, -2.20, 10.14, 1.73, 1.95, 8.24, repro,
2018-08-28,4.55, 0.85, 16.59, 1.66, 1.80, 7.82, repro,
2018-08-29,0.87, 0.97, 2.39, 1.69, 1.88, 7.80, repro,
2018-08-30,1.91, 1.37, 11.67, 1.80, 1.94, 8.37, repro,
2018-08-31,-0.62, -1.78, 6.12, 1.62, 1.74, 7.49, repro,
2018-09-01,0.12, 0.81, -5.39, 1.61, 1.75, 7.46, repro,
2018-09-02,-0.73, -1.27, -0.52, 1.65, 1.78, 7.68, repro,
2018-09-03,0.22, -0.75, 4.38, 1.70, 1.85, 7.93, repro,
2018-09-04,-0.89, 2.48, -3.13, 1.79, 2.01, 8.51, repro,
2018-09-05,-0.04, 1.31, -2.54, 1.71, 1.85, 7.84, repro,
2018-09-06,-0.68, -1.49, 7.72, 1.79, 2.12, 8.36, repro,
2018-09-07,0.43, -0.27, 12.41, 1.66, 1.82, 7.57, repro,
2018-09-08,-0.56, -0.39, 4.10, 1.61, 1.76, 7.52, repro,
2018-09-09,1.01, 0.31, 3.37, 1.66, 1.80, 7.72, repro,
2018-09-10,-0.53, -1.30, -0.36, 1.61, 1.74, 7.53, repro,
2018-09-11,3.20, 0.99, 0.85, 1.77, 1.89, 8.25, repro,
2018-09-12,-1.99, 1.03, -3.10, 1.62, 1.76, 7.57, repro,
2018-09-13,-0.75, 0.19, 7.98, 1.75, 1.89, 8.36, repro,
2018-09-14,0.70, -1.86, -10.36, 1.76, 1.95, 8.40, repro,
2018-09-15,-0.86, 1.96, -3.04, 1.83, 2.09, 8.50, repro,
2018-09-16,-1.23, -0.55, 3.11, 1.66, 1.91, 7.87, repro,
2018-09-17,0.08, -2.18, -1.80, 1.65, 1.90, 7.83, repro,
2018-09-18,-0.99, 0.78, -3.81, 1.61, 1.75, 7.54, repro,
2018-09-19,-1.19, -1.61, -1.56, 1.63, 1.79, 7.65, repro,
2018-09-20,-1.88, -3.54, -10.88, 1.67, 1.88, 7.87, repro,
2018-09-21,1.64, -2.70, 8.76, 1.70, 1.89, 8.03, repro,
2018-09-22,2.61, 2.62, 8.53, 1.79, 1.96, 8.30, repro,
2018-09-23,1.40, -0.80, 2.73, 1.68, 1.82, 7.84, repro,
2018-09-24,-0.19, -0.69, -5.51, 1.67, 1.88, 7.88, repro,
2018-09-25,3.34, -1.05, 7.46, 1.83, 2.14, 8.66, repro,
2018-09-26,-0.87, 1.77, -7.43, 1.71, 1.83, 7.94, repro,
2018-09-27,1.23, -0.43, 10.31, 1.74, 1.88, 8.09, repro,
2018-09-28,3.50, -0.89, 4.97, 1.78, 1.89, 8.32, repro,
2018-09-29,0.17, -0.76, 7.87, 1.68, 1.80, 7.75, repro,
2018-09-30,-3.31, -3.92, -13.71, 1.77, 1.97, 8.18, repro,
2018-10-01,-0.77, -3.57, -1.84, 1.70, 1.79, 7.92, repro,
2018-10-02,-1.07, -1.94, -13.98, 1.63, 1.83, 7.72, repro,
2018-10-03,4.57, -4.46, 3.52, 1.71, 1.91, 7.85, repro,
2018-10-04,0.38, -2.37, -3.66, 1.72, 1.90, 8.06, repro,
2018-10-05,-0.40, -1.04, -7.88, 1.62, 1.81, 7.65, repro,
2018-10-06,-0.14, -2.95, -6.13, 1.64, 1.81, 7.72, repro,
2018-10-07,0.68, -1.67, -4.94, 1.76, 2.05, 8.57, repro,
2018-10-08,1.40, -4.39, -8.87, 1.72, 1.87, 8.01, repro,
2018-10-09,1.24, -1.51, -6.10, 1.67, 1.85, 7.82, repro,
2018-10-10,1.09, 0.60, 0.43, 1.71, 1.94, 8.22, repro,
2018-10-11,1.50, -0.09, -5.73, 1.63, 1.76, 7.58, repro,
2018-10-12,0.62, -0.95, -12.79, 1.70, 1.88, 7.96, repro,
2018-10-13,0.58, -3.93, -4.62, 1.66, 1.79, 7.75, repro,
2018-10-14,1.05, 1.14, -4.25, 1.65, 1.83, 7.77, repro,
2018-10-15,0.86, 0.70, -3.84, 1.60, 1.74, 7.48, repro,
2018-10-16,-0.66, -0.23, -7.18, 1.69, 1.81, 7.78, repro,
2018-10-17,2.03, 1.25, 0.34, 1.74, 1.89, 8.06, repro,
2018-10-18,3.44, -2.13, -4.75, 1.67, 1.80, 7.77, repro,
2018-10-19,1.60, -0.50, 3.91, 1.74, 1.87, 8.19, repro,
2018-10-20,1.34, 1.07, 2.70, 1.66, 1.82, 7.81, repro,
2018-10-21,0.64, 0.96, -0.22, 1.69, 1.93, 8.17, repro,
2018-10-22,2.68, -1.78, 3.17, 1.81, 1.88, 8.38, repro,
2018-10-23,1.27, 0.43, -9.35, 1.65, 1.78, 7.62, repro,
2018-10-24,-0.69, 0.23, -12.38, 1.78, 1.84, 8.18, repro,
2018-10-25,0.10, -2.92, -7.51, 1.83, 2.10, 8.48, repro,
2018-10-26,0.38, -1.25, -13.73, 1.61, 1.74, 7.49, repro,
2018-10-27,1.20, -1.10, -7.09, 1.68, 1.80, 7.89, repro,
2018-10-28,1.29, 1.29, 7.58, 1.67, 1.87, 7.89, repro,
2018-10-29,-0.62, 0.33, -3.38, 1.70, 1.80, 7.93, repro,
2018-10-30,1.23, -1.61, 4.97, 1.61, 1.75, 7.49, repro,
2018-10-31,1.27, -1.00, -7.05, 1.62, 1.77, 7.54, repro,
2018-11-01,0.68, 0.23, -1.59, 1.61, 1.74, 7.51, repro,
2018-11-02,-1.31, -0.97, -0.17, 1.68, 1.80, 7.78, repro,
2018-11-03,-0.82, -1.06, -1.28, 1.73, 1.88, 8.22, repro,
2018-11-04,-0.98, 0.13, -10.89, 1.73, 1.94, 8.14, repro,
2018-11-05,3.10, 0.42, -5.08, 1.67, 1.92, 8.02, repro,
2018-11-06,0.64, -1.44, -5.40, 1.65, 1.80, 7.73, repro,
2018-11-07,0.97, 0.74, 0.42, 1.71, 1.87, 7.83, repro,
2018-11-08,0.18, 0.33, -17.76, 1.68, 1.89, 7.90, repro,
2018-11-09,0.41, 1.29, -9.85, 1.61, 1.74, 7.43, repro,
2018-11-10,2.73, 0.73, -2.71, 1.66, 1.77, 7.65, repro,
2018-11-11,1.09, 1.17, 0.11, 1.66, 1.82, 7.71, repro,
2018-11-12,0.41, -2.41, 7.44, 1.70, 1.87, 8.04, repro,
2018-11-13,1.20, -1.96, -7.06, 1.73, 1.88, 8.06, repro,
2018-11-14,1.66, 0.88, -7.46, 1.65, 1.81, 7.74, repro,
2018-11-15,-0.31, 0.19, 3.99, 1.62, 1.76, 7.54, repro,
2018-11-16,2.02, 1.34, 3.49, 1.62, 1.77, 7.58, repro,
2018-11-17,-0.63, 0.38, -2.72, 1.68, 1.83, 8.01, repro,
2018-11-18,-0.61, 0.09, 6.12, 1.61, 1.78, 7.54, repro,
2018-11-19,-0.33, -1.29, -8.39, 1.61, 1.77, 7.49, repro,
2018-11-20,2.49, 0.83, -0.85, 1.67, 1.83, 7.73, repro,
2018-11-21,-0.96, -2.42, 1.55, 1.84, 2.05, 8.44, repro,
2018-11-22,1.29, -2.25, -5.86, 1.63, 1.78, 7.49, repro,
2018-11-23,0.29, -0.22, -4.62, 1.63, 1.80, 7.56, repro,
2018-11-24,0.13, -2.08, 1.82, 1.66, 1.81, 7.62, repro,
2018-11-25,0.67, -0.20, 3.02, 1.61, 1.77, 7.46, repro,
2018-11-26,1.27, -1.39, 0.60, 1.70, 1.79, 8.00, repro,
2018-11-27,-1.33, -0.52, -2.93, 1.80, 2.08, 8.50, repro,
2018-11-28,2.71, -1.81, -2.44, 1.64, 1.83, 7.68, repro,
2018-11-29,-0.51, -2.07, 0.20, 1.72, 1.83, 7.81, repro,
2018-11-30,0.64, 0.29, 4.83, 1.65, 1.81, 7.67, repro,
2018-12-01,-1.14, -4.52, 12.45, 1.72, 1.99, 8.00, repro,
2018-12-02,0.33, 1.24, -1.48, 1.64, 1.81, 7.68, repro,
2018-12-03,-2.40, 1.38, 4.83, 1.74, 2.06, 8.17, repro,
2018-12-04,-0.90, -0.10, 0.54, 1.79, 1.88, 8.22, repro,
2018-12-05,-0.07, -0.73, -0.54, 1.66, 1.89, 7.85, repro,
2018-12-06,0.07, -2.68, -13.22, 1.66, 1.84, 7.88, repro,
2018-12-07,1.29, 2.11, 0.38, 1.84, 2.08, 8.51, repro,
2018-12-08,0.01, 0.25, 4.35, 1.78, 1.91, 8.27, repro,
2018-12-09,0.79, 2.56, -15.80, 1.64, 1.79, 7.69, repro,
2018-12-10,-0.40, 0.49, 1.26, 1.62, 1.78, 7.52, repro,
2018-12-11,-2.15, 0.42, -4.41, 1.63, 1.79, 7.59, repro,
2018-12-12,-0.19, 1.00, 2.29, 1.61, 1.74, 7.45, repro,
2018-12-13,-1.02, 2.06, -13.24, 1.65, 1.87, 7.76, repro,
2018-12-14,0.42, 0.62, -10.18, 1.64, 1.87, 7.71, repro,
2018-12-15,0.39, 2.45, 4.86, 1.65, 1.81, 7.66, repro,
2018-12-16,-0.57, 1.24, 2.41, 1.70, 1.82, 7.98, repro,
2018-12-17,-1.10, -0.14, -10.92, 1.64, 1.78, 7.53, repro,
2018-12-18,1.23, 1.85, 0.41, 1.69, 1.79, 7.86, repro,
2018-12-19,0.01, -0.06, 2.35, 1.62, 1.78, 7.53, repro,
2018-12-20,0.41, 0.44, -12.50, 1.64, 1.78, 7.66, repro,
2018-12-21,0.36, 1.29, -3.93, 1.61, 1.74, 7.43, repro,
2018-12-22,0.15, -1.02, -0.37, 1.62, 1.75, 7.51, repro,
2018-12-23,0.95, -1.64, -0.72, 1.78, 2.20, 8.54, repro,
2018-12-24,2.42, -2.69, 1.64, 1.65, 1.81, 7.69, repro,
2018-12-25,-0.62, -0.46, 15.29, 1.64, 1.77, 7.63, repro,
2018-12-26,-0.71, -2.23, -0.44, 1.67, 1.85, 7.70, repro,
2018-12-27,0.78, 0.30, 3.38, 1.70, 1.81, 7.87, repro,
2018-12-28,0.24, 2.80, 7.11, 1.71, 1.85, 8.03, repro,
2018-12-29,4.50, 2.12, 8.60, 1.73, 1.82, 7.94, repro,
2018-12-30,2.03, 0.03, -0.51, 1.64, 1.81, 7.65, repro,
2018-12-31,0.51, 2.17, 3.18, 1.66, 1.90, 7.85, repro,
2019-01-01,2.48, 1.31, 0.62, 1.64, 1.81, 7.65, repro,
2019-01-02,0.62, 0.81, -6.76, 1.67, 1.88, 7.79, repro,
2019-01-03,0.44, 1.74, -6.89, 1.62, 1.75, 7.44, repro,
2019-01-04,1.58, 2.36, -3.19, 1.62, 1.75, 7.50, repro,
2019-01-05,0.35, 0.92, 1.64, 1.60, 1.73, 7.44, repro,
2019-01-06,2.21, 1.48, 0.67, 1.62, 1.78, 7.55, repro,
2019-01-07,-0.31, 0.68, 6.85, 1.62, 1.75, 7.50, repro,
2019-01-08,1.89, -0.44, -7.90, 1.62, 1.77, 7.50, repro,
2019-01-09,0.44, 0.56, -4.31, 2.07, 2.31, 9.72, repro,
2019-01-10,-0.40, 4.47, -0.08, 1.78, 1.94, 8.35, repro,
2019-01-11,1.45, 1.68, -6.16, 1.76, 1.85, 8.12, repro,
2019-01-12,-0.65, 2.59, -13.08, 1.72, 1.91, 7.97, repro,
2019-01-13,1.13, 1.18, -6.30, 1.62, 1.79, 7.54, repro,
2019-01-14,-0.09, 1.30, -7.75, 1.63, 1.79, 7.65, repro,
2019-01-15,2.56, 0.33, 7.80, 1.72, 1.94, 8.15, repro,
2019-01-16,0.25, 1.73, 2.44, 1.62, 1.74, 7.52, repro,
2019-01-17,0.89, 0.39, 1.77, 1.66, 1.79, 7.67, repro,
2019-01-18,0.30, 2.91, -10.56, 1.65, 1.75, 7.64, repro,
2019-01-19,-0.13, 1.18, -3.84, 1.64, 1.76, 7.63, repro,
2019-01-20,-0.46, 0.52, -9.06, 1.68, 1.84, 7.80, repro,
2019-01-21,0.44, 1.17, -3.17, 1.63, 1.80, 7.56, repro,
2019-01-22,1.34, 1.65, -11.00, 1.71, 1.90, 7.84, repro,
2019-01-23,4.08, 3.26, -0.09, 1.68, 1.82, 7.76, repro,
2019-01-24,2.29, -1.34, -5.80, 1.68, 1.84, 7.84, repro,
2019-01-25,-0.69, 2.90, -9.39, 1.66, 1.82, 7.72, repro,
2019-01-26,2.04, -0.18, 1.79, 1.68, 1.76, 7.79, repro,
2019-01-27,2.01, 1.13, 1.91, 1.65, 1.72, 7.76, sup6f,
2019-01-28,0.61, 1.37, -5.46, 1.58, 1.71, 7.35, sup6f,
2019-01-29,1.18, 1.01, -0.12, 1.58, 1.71, 7.36, sup6f,
2019-01-30,1.52, 0.96, -0.51, 1.59, 1.72, 7.39, sup6f,
2019-01-31,0.98, 2.05, 1.67, 1.65, 1.76, 7.60, sup6f,
2019-02-01,1.61, -0.61, -5.51, 1.61, 1.73, 7.51, sup6f,
2019-02-02,0.41, 1.18, -3.76, 1.60, 1.72, 7.43, sup6f,
2019-02-03,0.47, -0.51, -2.57, 1.58, 1.72, 7.37, sup6f,
2019-02-04,2.27, -2.11, 1.84, 1.69, 1.80, 7.78, sup6f,
2019-02-05,-1.16, -1.32, 3.30, 1.61, 1.71, 7.44, sup6f,
2019-02-06,-0.15, 0.10, -7.63, 1.59, 1.72, 7.41, sup6f,
2019-02-07,-1.36, -1.81, 6.00, 1.63, 1.79, 7.59, sup6f,
2019-02-08,1.79, 0.01, 14.92, 1.63, 1.80, 7.68, sup6f,
2019-02-09,0.52, 0.60, -4.53, 1.66, 1.78, 7.71, sup6f,
2019-02-10,-1.17, 1.11, -2.74, 1.72, 1.82, 7.93, suppf,
2019-02-11,-1.10, -1.54, 6.50, 1.71, 1.85, 8.03, suppf,
2019-02-12,1.09, -1.97, 9.24, 1.74, 1.88, 8.30, suppf,
2019-02-13,-1.26, -0.60, 3.55, 1.63, 1.84, 7.67, suppf,
2019-02-14,-1.81, -0.26, -4.76, 1.67, 1.87, 7.81, suppf,
2019-02-15,-0.34, -2.05, -2.95, 1.66, 1.75, 7.66, suppf,
2019-02-16,0.63, -0.89, -4.95, 1.62, 1.74, 7.55, suppf,
2019-02-17,-0.37, -0.59, 4.01, 1.62, 1.74, 7.51, repro,
2019-02-18,0.44, -0.03, 4.50, 1.63, 1.76, 7.52, repro,
2019-02-19,-2.54, -0.18, -5.59, 1.64, 1.77, 7.59, repro,
2019-02-20,0.06, -0.22, 1.60, 1.63, 1.78, 7.63, repro,
2019-02-21,-1.71, 1.88, 4.59, 1.63, 1.75, 7.54, repro,
2019-02-22,-1.85, -0.52, -2.25, 1.62, 1.75, 7.57, repro,
2019-02-23,0.11, -0.29, -3.57, 1.61, 1.74, 7.46, repro,
2019-02-24,-0.24, -1.71, -2.41, 1.60, 1.73, 7.39, suppf,
2019-02-25,0.38, -0.54, -8.67, 1.58, 1.71, 7.33, suppf,
2019-02-26,-0.65, -1.47, -13.02, 1.63, 1.79, 7.70, suppf,
2019-02-27,2.14, 0.71, -3.55, 1.67, 1.82, 7.87, suppf,
2019-02-28,-0.43, -0.24, 3.26, 1.59, 1.73, 7.43, suppf,
2019-03-01,-0.84, 0.14, 5.41, 1.62, 1.78, 7.49, suppf,
2019-03-02,0.04, 1.61, -1.83, 1.63, 1.82, 7.62, suppf,
2019-03-03,0.66, 0.93, 7.18, 1.60, 1.79, 7.49, suppf,
2019-03-04,-0.78, 0.25, -5.89, 1.61, 1.77, 7.62, suppf,
2019-03-05,1.64, 0.54, -3.48, 1.60, 1.72, 7.47, suppf,
2019-03-06,-0.74, -1.33, -3.60, 1.61, 1.74, 7.55, suppf,
2019-03-07,0.05, -1.56, -12.11, 1.59, 1.72, 7.43, suppf,
2019-03-08,0.74, -1.64, -12.30, 1.59, 1.72, 7.43, suppf,
2019-03-09,1.58, -0.30, -2.24, 1.58, 1.73, 7.40, suppf,
2019-03-10,0.56, -0.81, 0.63, 1.60, 1.73, 7.50, suppf,
2019-03-11,0.46, -0.65, -6.29, 1.68, 1.85, 7.90, suppf,
2019-03-12,-0.93, -0.62, 1.08, 1.61, 1.74, 7.52, suppf,
2019-03-13,1.95, -1.33, 3.37, 1.59, 1.71, 7.43, suppf,
2019-03-14,2.19, -2.27, 4.64, 1.58, 1.72, 7.41, suppf,
2019-03-15,2.70, 0.48, 4.83, 1.63, 1.77, 7.65, suppf,
2019-03-16,-0.49, -0.08, 3.27, 1.60, 1.73, 7.49, suppf,
2019-03-17,-0.12, -0.25, -0.99, 1.61, 1.73, 7.47, suppf,
2019-03-18,0.29, -2.60, 4.45, 1.61, 1.76, 7.59, suppf,
2019-03-19,0.43, 1.01, -6.98, 1.59, 1.74, 7.44, suppf,
2019-03-20,0.92, 0.86, -2.91, 1.59, 1.75, 7.49, suppf,
2019-03-21,0.69, -0.73, -0.63, 1.83, 1.98, 8.90, suppf,
2019-03-22,-1.57, -1.16, -9.35, 1.64, 1.82, 7.66, suppf,
2019-03-23,2.99, -2.88, 4.38, 1.63, 1.83, 7.78, suppf,
2019-03-24,0.02, -0.62, -1.61, 1.65, 1.82, 7.68, suppf,
2019-03-25,0.18, -0.90, -11.95, 1.66, 1.82, 7.80, suppf,
2019-03-26,-0.07, -1.61, -4.83, 1.74, 1.87, 8.20, suppf,
2019-03-27,-1.24, -1.75, 6.01, 1.72, 1.83, 7.80, suppf,
2019-03-28,1.80, -0.20, 6.24, 1.69, 1.80, 7.75, suppf,
2019-03-29,-1.20, 0.90, 3.93, 1.61, 1.74, 7.48, suppf,
2019-03-30,0.43, -1.67, 1.99, 1.63, 1.80, 7.64, suppf,
2019-03-31,-1.57, 0.45, -5.52, 1.65, 1.81, 7.64, suppf,
2019-04-01,0.25, 0.23, -1.01, 1.62, 1.78, 7.50, suppf,
2019-04-02,2.78, -0.49, -5.83, 1.67, 1.84, 7.80, suppf,
2019-04-03,-0.37, -1.20, -1.60, 1.69, 1.87, 7.92, suppf,
2019-04-04,-0.26, -2.76, 0.28, 1.68, 1.80, 7.84, suppf,
2019-04-05,2.45, -0.51, 0.67, 1.62, 1.77, 7.55, suppf,
2019-04-06,0.64, 2.66, 4.21, 1.69, 2.00, 8.03, suppf,
2019-04-07,-0.05, -0.53, 0.97, 1.63, 1.80, 7.50, repro,
2019-04-08,-0.65, 0.15, -1.65, 1.62, 1.79, 7.53, repro,
2019-04-09,0.75, -0.42, -4.07, 1.67, 1.80, 7.67, repro,
2019-04-10,0.68, -2.33, 13.27, 1.72, 1.78, 8.00, repro,
2019-04-11,0.65, -0.26, 5.81, 1.61, 1.75, 7.42, repro,
2019-04-12,1.98, -1.85, 8.82, 1.61, 1.79, 7.56, repro,
2019-04-13,1.99, -1.04, 0.85, 1.62, 1.75, 7.47, repro,
2019-04-14,2.00, -1.99, 8.83, 1.61, 1.75, 7.47, repro,
2019-04-15,-0.66, -0.38, -2.43, 1.61, 1.77, 7.46, repro,
2019-04-16,-0.75, 0.49, -4.18, 1.59, 1.74, 7.39, repro,
2019-04-17,-1.16, 0.70, -5.66, 1.60, 1.74, 7.42, repro,
2019-04-18,0.62, -2.18, 9.55, 1.67, 1.77, 7.72, repro,
2019-04-19,0.61, 49.29, -111.19, 64.44, 121.00, 623.03, repro,
2019-04-22,-0.27, -4.85, -12.29, 2.41, 2.70, 11.06, repro,
2019-04-23,0.47, -0.42, 14.05, 1.64, 1.78, 7.57, repro,
2019-04-24,2.34, -1.50, 3.54, 1.70, 1.82, 7.82, repro,
2019-04-25,0.51, -2.35, -2.72, 1.68, 1.80, 7.69, repro,
2019-04-26,1.30, 0.81, 0.70, 1.61, 1.77, 7.50, repro,
2019-04-27,0.45, 0.83, 1.86, 1.66, 1.88, 7.81, repro,
2019-04-28,-0.45, -0.13, -0.92, 1.63, 1.78, 7.68, repro,
2019-04-29,0.36, -1.93, -2.44, 1.74, 1.91, 8.04, repro,
2019-04-30,0.54, 2.66, 6.66, 1.63, 1.76, 7.60, repro,
2019-05-01,-1.23, -1.50, 3.88, 1.62, 1.79, 7.58, repro,
2019-05-02,-0.81, 1.18, -7.91, 1.81, 1.97, 8.24, repro,
2019-05-03,-0.70, -1.40, 4.40, 1.66, 1.80, 7.63, repro,
2019-05-04,-1.24, -0.31, 5.08, 1.60, 1.74, 7.41, repro,
2019-05-05,0.81, 2.00, -8.23, 1.63, 1.81, 7.57, suppf,
2019-05-06,-1.47, -0.97, -9.13, 1.65, 1.89, 7.81, suppf,
2019-05-07,0.40, -0.84, 3.61, 1.62, 1.81, 7.55, suppf,
2019-05-08,0.34, -1.00, 0.40, 1.62, 1.81, 7.59, suppf,
2019-05-09,1.12, -0.95, -3.19, 1.60, 1.73, 7.44, suppf,
2019-05-10,1.14, -3.30, 3.40, 1.73, 1.91, 7.86, suppf,
2019-05-11,1.93, 0.92, 11.46, 1.69, 1.93, 7.93, suppf,
2019-05-12,0.54, -2.52, -1.28, 1.61, 1.81, 7.60, suppf,
2019-05-13,2.15, -0.27, -2.81, 1.64, 1.80, 7.67, suppf,
2019-05-14,-3.39, -1.58, -8.54, 1.60, 1.77, 7.49, suppf,
2019-05-15,-0.46, -1.54, -0.91, 1.61, 1.80, 7.55, suppf,
2019-05-16,0.78, -4.11, 2.35, 1.61, 1.81, 7.55, suppf,
2019-05-17,0.94, -3.99, 3.47, 1.61, 1.79, 7.57, suppf,
2019-05-18,2.04, -0.39, 0.98, 1.68, 1.87, 7.88, suppf,
2019-05-19,-0.02, -2.29, 10.32, 1.87, 2.08, 8.81, suppf,
2019-05-20,1.23, 1.28, 0.30, 1.80, 2.17, 8.77, suppf,
2019-05-21,-0.27, 1.68, 5.43, 1.94, 2.19, 9.15, suppf,
2019-05-22,0.12, -1.41, -7.20, 1.78, 2.13, 8.67, suppf,
2019-05-23,-2.59, -0.13, -13.49, 1.71, 2.02, 8.17, suppf,
2019-05-24,0.41, -2.52, -12.82, 1.67, 1.92, 8.10, suppf,
2019-05-25,0.27, -2.40, -0.32, 1.68, 1.85, 7.94, suppf,
2019-05-26,-1.02, -0.17, -10.81, 1.60, 1.78, 7.52, suppf,
2019-05-27,0.17, 1.10, 4.01, 1.72, 1.87, 7.73, repro,
2019-05-28,-0.64, -1.52, 1.82, 1.60, 1.77, 7.49, suppf,
2019-05-29,-0.71, -0.58, -4.69, 1.63, 1.82, 7.65, suppf,
2019-05-30,-0.50, -3.26, -2.42, 1.68, 2.01, 8.08, suppf,
2019-05-31,-1.62, -0.43, -5.19, 1.61, 1.82, 7.60, suppf,
2019-06-01,0.45, -0.99, -4.66, 1.59, 1.77, 7.43, suppf,
2019-06-02,-1.00, -1.50, -2.76, 1.61, 1.77, 7.51, final,
2019-06-03,-2.25, -2.69, 1.69, 1.86, 2.07, 8.41, final,
2019-06-04,0.39, -2.48, -21.45, 1.85, 2.08, 8.23, final,
2019-06-05,-0.67, -0.15, 4.77, 1.80, 2.07, 8.10, final,
2019-06-06,0.15, -1.97, 4.63, 2.02, 2.42, 9.74, final,
2019-06-07,0.26, -1.07, 5.42, 1.81, 2.08, 8.38, final,
2019-06-08,-2.57, 0.82, -9.55, 1.89, 2.17, 8.91, final,
2019-06-09,-3.45, -1.10, 1.56, 1.66, 1.89, 7.81, final,
2019-06-10,-0.50, 1.39, 0.67, 1.71, 1.94, 7.90, final,
2019-06-11,-0.19, -4.38, -2.16, 1.61, 1.83, 7.57, final,
2019-06-12,-0.85, -2.16, -6.15, 1.62, 1.82, 7.58, final,
2019-06-13,-0.05, -3.23, -7.32, 1.64, 1.84, 7.70, final,
2019-06-14,-0.64, -1.10, -11.22, 1.69, 1.88, 8.04, final,
2019-06-15,-1.71, -3.88, -10.01, 1.75, 1.89, 8.35, final,
2019-06-16,2.04, -1.92, -0.36, 1.63, 1.89, 7.77, suppf,
2019-06-17,-0.39, -2.65, 1.19, 1.68, 1.84, 7.86, suppf,
2019-06-18,1.05, -2.24, 2.32, 1.62, 1.81, 7.60, suppf,
2019-06-19,-2.37, -0.59, 3.28, 1.68, 1.88, 7.67, suppf,
2019-06-20,1.06, -2.04, 9.37, 1.87, 2.16, 8.87, suppf,
2019-06-21,-2.16, -3.64, -2.94, 1.91, 2.16, 9.01, suppf,
2019-06-22,0.23, -2.39, -6.17, 1.62, 1.80, 7.53, suppf,
2019-06-23,0.57, -0.89, -7.10, 1.61, 1.80, 7.51, suppf,
2019-06-24,0.70, -3.15, 2.53, 1.61, 1.80, 7.53, suppf,
2019-06-25,2.49, -2.32, 5.32, 1.63, 1.83, 7.62, suppf,
2019-06-26,-0.75, -2.37, 0.13, 1.76, 1.98, 8.08, suppf,
2019-06-27,0.24, -0.47, -5.86, 1.70, 2.01, 8.10, suppf,
2019-06-28,5.29, -0.04, -4.45, 1.80, 2.12, 8.66, suppf,
2019-06-29,-1.48, -2.38, -11.13, 1.73, 1.91, 8.17, suppf,
2019-06-30,0.49, -1.39, -2.56, 1.59, 1.76, 7.40, suppf,
2019-07-01,0.72, -1.01, -8.99, 1.60, 1.77, 7.50, suppf,
2019-07-02,-0.75, -0.36, -0.32, 1.68, 1.78, 7.88, suppf,
2019-07-03,0.70, 1.32, 3.12, 1.66, 1.85, 7.83, suppf,
2019-07-04,1.97, -0.94, -1.10, 1.71, 1.92, 7.99, suppf,
2019-07-05,2.13, -1.71, 1.01, 1.67, 1.90, 7.90, suppf,
2019-07-06,-0.14, -4.69, 1.29, 1.68, 1.92, 7.98, suppf,
2019-07-07,1.86, -0.64, 3.19, 1.63, 1.78, 7.58, repro,
2019-07-08,2.23, 0.17, -10.56, 1.68, 1.86, 7.83, repro,
2019-07-09,1.51, 0.55, -6.85, 1.78, 1.94, 8.28, repro,
2019-07-10,-0.78, -1.99, -6.48, 1.65, 1.86, 7.66, repro,
2019-07-11,0.52, -0.69, 0.67, 1.68, 1.86, 7.84, repro,
2019-07-12,-2.26, 3.28, -16.16, 1.74, 1.95, 8.16, repro,
2019-07-13,2.81, -2.45, 13.80, 1.77, 1.93, 8.25, repro,
2019-07-14,1.14, -2.27, -4.88, 1.70, 1.90, 8.11, final,
2019-07-15,-0.20, -0.37, 6.25, 1.65, 1.82, 7.66, final,
2019-07-16,-0.32, 4.37, 8.58, 1.61, 1.82, 7.61, final,
2019-07-17,0.46, 1.12, 3.33, 1.73, 1.89, 8.23, final,
2019-07-18,-0.42, -0.42, -1.17, 1.66, 1.92, 8.02, final,
2019-07-19,0.20, -4.12, 10.62, 1.67, 1.91, 7.83, final,
2019-07-20,-0.95, -0.51, 2.49, 1.59, 1.78, 7.50, final,
2019-07-21,1.90, -1.72, -1.06, 1.67, 1.87, 7.87, final,
2019-07-22,1.39, -0.79, 10.53, 1.79, 1.98, 8.28, final,
2019-07-23,-0.24, -2.52, -1.01, 1.68, 1.92, 8.13, final,
2019-07-24,0.64, -1.44, 8.30, 1.70, 1.83, 8.31, final,
2019-07-25,1.72, -0.56, 5.08, 1.63, 1.84, 7.72, final,
2019-07-26,1.77, -3.32, -0.64, 1.78, 1.99, 8.46, final,
2019-07-27,2.15, -2.63, 4.91, 1.59, 1.77, 7.51, final,
2019-07-28,-2.38, -2.75, -0.14, 1.73, 1.89, 8.41, final,
2019-07-29,-0.94, 0.78, -19.46, 1.72, 1.94, 8.10, final,
2019-07-30,-2.94, -8.16, 17.90, 1.71, 1.90, 8.07, final,
2019-07-31,1.73, -3.22, 7.86, 1.65, 1.83, 7.76, final,
2019-08-01,1.12, -0.71, -4.20, 1.60, 1.77, 7.54, final,
2019-08-02,0.40, -1.52, 1.92, 1.64, 1.81, 7.76, final,
2019-08-03,2.73, -5.00, 4.27, 1.67, 1.91, 8.13, final,
2019-08-04,1.84, -1.07, 11.55, 1.70, 1.84, 8.10, final,
2019-08-05,1.02, -2.04, 8.96, 1.84, 2.17, 9.02, final,
2019-08-06,2.92, -4.16, 6.39, 1.67, 1.86, 7.84, final,
2019-08-07,0.41, -1.51, -0.80, 1.73, 2.04, 8.46, final,
2019-08-08,-0.14, 1.20, 1.87, 1.73, 2.00, 8.21, final,
2019-08-09,0.79, -2.97, -4.17, 1.76, 1.98, 8.39, final,
2019-08-10,0.97, -1.11, 0.73, 1.66, 1.84, 7.79, final,
2019-08-11,1.42, -1.98, 7.50, 1.68, 1.86, 8.02, final,
2019-08-12,1.22, 0.14, 7.89, 1.69, 1.87, 7.96, final,
2019-08-13,-1.59, -2.41, -0.11, 1.63, 1.80, 7.59, final,
2019-08-14,0.94, -2.00, -2.15, 1.63, 1.87, 7.76, final,
2019-08-15,-1.25, -1.39, -0.72, 1.70, 2.03, 8.23, final,
2019-08-16,0.49, -1.34, 0.07, 1.67, 1.85, 8.05, final,
2019-08-17,4.12, 1.97, 17.64, 1.71, 1.86, 8.02, final,
2019-08-18,1.37, -1.20, -1.86, 1.62, 1.79, 7.62, final,
2019-08-19,2.67, -2.30, -3.02, 1.81, 2.12, 8.81, final,
2019-08-20,1.44, 0.06, -10.11, 1.66, 1.87, 7.96, final,
2019-08-21,2.78, -0.62, 2.45, 1.74, 1.86, 8.44, final,
2019-08-22,-0.65, -0.96, 0.20, 1.63, 1.81, 7.77, final,
2019-08-23,0.08, -3.98, 3.99, 1.72, 2.07, 8.31, final,
2019-08-24,-0.26, -1.51, 8.74, 1.65, 1.95, 7.97, final,
2019-08-25,-0.47, -1.84, 11.63, 1.80, 1.96, 8.53, final,
2019-08-26,0.19, -0.19, 1.96, 1.60, 1.77, 7.53, final,
2019-08-27,1.03, 0.51, 5.42, 1.61, 1.77, 7.53, final,
2019-08-28,1.88, -2.91, -12.29, 1.69, 1.86, 7.89, final,
2019-08-29,-0.33, 0.35, -12.74, 1.98, 2.29, 9.32, final,
2019-08-30,-2.83, 0.56, 3.11, 1.85, 2.27, 8.69, final,
2019-08-31,-5.10, 8.21, 16.84, 2.89, 3.43, 13.99, final,
2019-09-02,6.07, 3.71, 28.68, 2.71, 3.03, 13.84, final,